AirNav   Duncan Aviation - Near you to keep you flying
 
 1289 users online  

SC86 Williamsport Airpark
Easley, South Carolina, USA

GOING TO EASLEY?


FAA INFORMATION EFFECTIVE 26 JANUARY 2023

Location

FAA Identifier: SC86
Lat/Long: 34-51-42.8650N 082-34-52.8800W
34-51.714417N 082-34.881333W
34.8619069,-82.5813556
(estimated)
Elevation: 1100 ft. / 335 m (estimated)
Variation: 04W (1990)
From city: 2 miles SW of EASLEY, SC
Time zone: UTC -5 (UTC -4 during Daylight Saving Time)
Zip code: 29640

Airport Operations

Airport use: Private use. Permission required prior to landing
Activation date: 04/1993
Control tower: no
ARTCC: ATLANTA CENTER
FSS: ANDERSON FLIGHT SERVICE STATION
Attendance: UNATNDD
Wind indicator: yes
Segmented circle: no
Landing fee: yes

Airport Communications

WX AWOS-3 at LQK (7 nm SW): 120.0 (864-843-5801)
WX ASOS at GMU (11 nm E): 127.075 (864-239-0014)
WX AWOS-3 at GYH (12 nm SE): 127.325 (864-277-5674)
WX ASOS at GSP (18 nm E): 134.25 (864-879-0614)
WX ASOS at CEU (19 nm SW): 119.275 (864-653-8855)

Nearby radio navigation aids

VOR radial/distance  VOR name  Freq  Var
ELWr021/28.4ELECTRIC CITY VORTAC108.6000E
SPAr254/33.8SPARTANBURG VORTAC115.7002W
SUGr207/36.1SUGARLOAF MOUNTAIN VORTAC112.2002W
ODFr074/36.7FOOTHILLS VOR/DME113.4000E

 
NDB name  Hdg/Dist  Freq  Var  ID
DYANA330/12.333804WGY --. -.--
JUDKY298/12.452105WGM --. --
BROAD RIVER199/25.237907WBRA -... .-. .-

Airport Services

Runway Information

Runway 15/33

Dimensions: 2380 x 75 ft. / 725 x 23 m
Surface: turf, in good condition
RUNWAY 15  RUNWAY 33
Latitude: 34-51.886333N34-51.542500N
Longitude: 082-34.996000W082-34.766667W
Elevation: 1090.0 ft.1084.0 ft.
Traffic pattern: leftleft
Obstructions: 25 ft. trees, 1700 ft. from runway35 ft. trees, 1500 ft. from runway

Airport Ownership and Management from official FAA records

Ownership: Privately-owned
Owner: WILLIAMSPORT PROPERTY OWNERS INC
P O BOX 962
EASLEY, SC 29641
Phone 864-238-6990
Manager: M. JACQUELINE WOHN, PRES
P O BOX 962
EASLEY, SC 29641
Phone 864-238-6990
KEITH KENNEDY, VP

Airport Operational Statistics

Aircraft based on the field: 15
Single engine airplanes: 14
Multi engine airplanes: 1
    

Additional Remarks

AIR -TO-AIR FREQUENCY - 122.75 MHZ
FOR CD CTC ATLANTA ARTCC AT 770-210-7692.

Instrument Procedures

There are no published instrument procedures at SC86.

Some nearby airports with instrument procedures:

KLQK - Pickens County Airport (7 nm SW)
KGMU - Greenville Downtown Airport (11 nm E)
KGYH - Donaldson Field Airport (12 nm SE)
KGSP - Greenville Spartanburg International Airport (18 nm E)
KCEU - Oconee County Regional Airport (19 nm SW)
 
Loc | Ops | Rwys | IFR | FBO | Links
Com | Nav | Svcs | Stats | Notes
Area around SC86 (Williamsport Airpark)
 
Road maps at: MapQuest Bing Google
 
Aerial photo
WARNING: Photo may not be current or correct
Aerial photo of SC86 (Williamsport Airpark)
Photo by AirNav, LLC
Photo taken 22-Oct-2010
from the southeast from a Mooney at 9,000 feet.

Do you have a better or more recent aerial photo of Williamsport Airpark that you would like to share? If so, please send us your photo.

 
Sectional chart

 
Airport distance calculator
Flying to Williamsport Airpark? Find the distance to fly.

From to SC86

Sunrise and sunset
Times for 31-Jan-2023
 Local
(UTC-5)
 Zulu
(UTC)
Morning civil twilight07:0412:04
Sunrise07:3112:31
Sunset17:5722:57
Evening civil twilight18:2423:24

Current date and time
Zulu (UTC)  01-Feb-2023 00:31:40
Local (UTC-5)  31-Jan-2023 19:31:40
 
METAR
KLQK 
7nm SW 
010015Z AUTO 25003KT 10SM OVC070 15/14 A3011 RMK AO2 T01480136
KGMU 
11nm E 
312353Z 25004KT 10SM FEW070 OVC090 16/12 A3011 RMK AO2 SLP193 T01610122 10167 20139 53009
KGYH 
12nm SE 
312347Z 23006KT 10SM SCT034 SCT080 16/13 A3011
KGSP 
18nm E 
312353Z 00000KT 10SM FEW048 BKN085 OVC100 14/12 A3010 RMK AO2 SLP191 T01440117 10161 20139 53010
KCEU 
19nm SW 
312354Z AUTO 24005KT 10SM OVC039 15/13 A3011 RMK AO2 SLP194 60000 T01500133 10167 20139 53009
TAF
KGMU 
11nm E 
312110Z 3121/0118 26006KT P6SM SCT013 BKN070 FM312200 23008KT P6SM OVC013 FM010000 23007KT P6SM OVC008 TEMPO 0100/0104 6SM -RA BR OVC005 FM010700 26005KT 5SM -RA BR OVC004 PROB30 0107/0113 2SM -RA BR OVC006 FM011600 01006KT P6SM OVC008
KGSP 
18nm E 
312247Z 3123/0118 23006KT P6SM SCT015 BKN080 FM010200 23007KT P6SM OVC008 TEMPO 0103/0107 6SM -RA BR OVC005 FM010700 26005KT 5SM -RA BR OVC004 PROB30 0108/0113 2SM -RA BR OVC006 FM011600 01006KT P6SM OVC008
NOTAMs
Click for the latest NOTAMs
NOTAMs are issued by the DoD/FAA and will open in a separate window not controlled by AirNav.

 

 
 

Would you like to see your business listed on this page?

 If your business provides an interesting product or service to pilots, flight crews, aircraft, or users of the Williamsport Airpark, you should consider listing it here.  To start the listing process, click on the button below
 
Add a business
 

Other Pages about Williamsport Airpark

Update a link
 
Copyright © AirNav, LLC. All rights reserved. Privacy Policy  Contact